Regional Weather Roundup
Issued by NWS

Home | Current Version | Previous Version | Graphics & Text | Print | Product List | Glossary On
Versions: 1 2 3 4 5 6 7 8 9 10 11 12 13 14 15 16 17 18 19 20 21 22 23 24 25 26 27 28 29 30 31 32 33 34 35 36 37 38 39 40 41 42 43 44 45 46 47 48 49 50
000
ASUS45 KPSR 281610
RWRAZ

ARIZONA REGIONAL HOURLY WEATHER ROUNDUP
NATIONAL WEATHER SERVICE PHOENIX AZ
900 AM MST WED JAN 28 2015

NOTE: FAIR INDICATES FEW OR NO CLOUDS BELOW 12,000 FEET WITH NO
SIGNIFICANT WEATHER AND/OR OBSTRUCTIONS TO VISIBILITY.

AZZ001>003-036-281700-
NORTHWEST ARIZONA

CITY           SKY/WX    TMP DP  RH WIND       PRES   REMARKS
BULLHEAD CITY  MOSUNNY   55  50  82 N7        30.24S
KINGMAN        PTSUNNY   45  44  97 SE5       30.27R FOG
$$

AZZ004>008-015-016-018-281700-
NORTH CENTRAL ARIZONA

CITY           SKY/WX    TMP DP  RH WIND       PRES   REMARKS
GRAND CANYON   MOSUNNY   29  27  92 CALM      30.32S
PRESCOTT       MOSUNNY   38  35  89 S6        30.29R WCI  33
FLAGSTAFF      MOSUNNY   29  27  92 CALM      30.32R
PAYSON         MOSUNNY   43  37  81 CALM      30.29S
$$

AZZ009>014-017-281700-
NORTHEAST ARIZONA

CITY           SKY/WX    TMP DP  RH WIND       PRES   REMARKS
WINSLOW        PTSUNNY   34  33  96 CALM      30.31R
SAINT JOHNS    MOSUNNY   43  35  73 CALM      30.30R
WINDOW ROCK    SUNNY     35  31  85 CALM      30.32S
SHOW LOW       SUNNY     41  37  87 CALM      30.33R
$$

AZZ023-281700-
GREATER PHOENIX AREA

CITY           SKY/WX    TMP DP  RH WIND       PRES   REMARKS
PHOENIX        PTSUNNY   59  50  72 SE3       30.17R
BUCKEYE          N/A     55  55 100 CALM      30.19R
GLENDALE       PTSUNNY   55  48  76 CALM      30.20R
LUKE AFB       NOT AVBL
DEER VALLEY    SUNNY     57  47  69 N3        30.18R
SCOTTSDALE     SUNNY     56  48  74 CALM      30.19R
MESA-FALCON    MOSUNNY   54  48  82 N6        30.17
MESA-GATEWAY   MOSUNNY   52  48  87 E5        30.20S
CHANDLER       PTSUNNY   52  50  93 CALM      30.19R
$$

AZZ027-028-281700-
SOUTHWEST MARICOPA COUNTY AND PINAL COUNTY

CITY           SKY/WX    TMP DP  RH WIND       PRES   REMARKS
CASA GRANDE    MOSUNNY   50  48  93 CALM      30.18S
GILA BEND      MOSUNNY   56  52  88 CALM      30.17R
$$

AZZ503-504-507>509-281700-
SOUTHEAST ARIZONA

CITY           SKY/WX    TMP DP  RH WIND       PRES   REMARKS
TUCSON         SUNNY     54  47  77 E3        30.21F
DAVIS-MONTHAN  SUNNY     54  48  81 SE5       30.19F
RYAN FIELD       N/A     52  52 100 E7        30.20F
NOGALES        SUNNY     47  43  86 S3        30.22S
SIERRA VISTA   MOSUNNY   57  46  67 CALM      30.26R
DOUGLAS        SUNNY     49  38  65 CALM      30.26R
SAFFORD        SUNNY     49  37  63 SE7       30.23S
$$

AZZ020-021-025-026-031-281700-
SOUTHWEST ARIZONA

CITY           SKY/WX    TMP DP  RH WIND       PRES   REMARKS
YUMA           PTSUNNY   55  52  89 CALM      30.19R
$$

CAZ031-033-041-043-047-048-061-281700-
SOUTHERN CALIFORNIA

CITY           SKY/WX    TMP DP  RH WIND       PRES   REMARKS
DOWNTOWN L.A.  PTSUNNY   59  47  64 CALM      30.15R
L.A. AIRPORT   PTSUNNY   57  48  72 E3        30.16R
SAN DIEGO      CLOUDY    58  47  66 CALM      30.13F
BURBANK        PTSUNNY   54  43  66 NW6       30.15R
ONTARIO        CLOUDY    54  46  74 CALM      30.16R
RIVERSIDE      PTSUNNY   53  46  77 NE6       30.17R
PALM SPRINGS   MOSUNNY   57  46  66 N5        30.21R
EL CENTRO NAS  PTSUNNY   51  48  89 W7        30.20R
IMPERIAL       MOSUNNY   52  48  86 SW6       30.19R
BLYTHE         PTSUNNY   52  51  97 CALM      30.20S
NEEDLES        PTSUNNY   55  49  80 CALM      30.22S
$$

NVZ020-UTZ003-281700-
SOUTHERN NEVADA-UTAH

CITY           SKY/WX    TMP DP  RH WIND       PRES   REMARKS
LAS VEGAS      CLOUDY    52  44  74 S7        30.23R
SALT LAKE CITY PTSUNNY   41  38  89 W3        30.27R
$$

NMZ009-TXZ055-281700-
NEW MEXICO-WEST TEXAS

CITY           SKY/WX    TMP DP  RH WIND       PRES   REMARKS
ALBUQUERQUE    MOSUNNY   43  34  70 SE7       30.29S
EL PASO        MOSUNNY   50  39  66 CALM      30.24R
$$


........................KEY........................
SKY/WX - SKY CONDITION/WEATHER
TMP    - TEMPERATURE IN FAHRENHEIT
DP     - DEW POINT IN FAHRENHEIT
RH     - RELATIVE HUMIDITY IN PERCENT
WIND   - DIRECTION AND SPEED IN MILES PER HOUR (MPH)
VRB    - VARIABLE WIND DIRECTION
PRES   - MEAN SEA LEVEL PRESSURE IN INCHES OF MERCURY
         F - FALLING PRESSURE   R - RISING PRESSURE
         S - STEADY PRESSURE
VSB    - VISIBILITY IN MILES
HX     - HEAT INDEX IN FAHRENHEIT
WCI    - WIND CHILL INDEX IN FAHRENHEIT
TC     - TEMPERATURE IN CELSIUS WHICH IS ALSO KNOWN AS
         TEMPERATURE IN CENTIGRADE
AFB    - AIR FORCE BASE
         LUKE AFB IS LUKE AIR FORCE BASE
         DAVIS-MONTHAN IS DAVIS-MONTHAN AIR FORCE BASE
NAS    - NAVAL AIR STATION
         EL CENTRO NAS IS EL CENTRO NAVAL AIR STATION
N/A    - NOT AVAILABLE


USA.gov is the U.S. government's official web portal to all federal, state and local government web resources and services.